Weather History for Duluth Sky Harbor, MN

Change the Weather History Date:

Sunday, July 14, 2013

  Actual Average Record
Temperature  
Mean Temperature 64 °F -  
Max Temperature 69 °F 77 °F 96 °F (1983)
Min Temperature 59 °F 55 °F 39 °F (1960)
Degree Days  
Heating Degree Days 1    
Growing Degree Days 14 (Base 50)    
Moisture  
Dew Point 60 °F    
Average Humidity 88    
Maximum Humidity 94    
Minimum Humidity 82    
Precipitation  
Precipitation 0.00 in - - ()
Sea Level Pressure  
Sea Level Pressure 30.14 in    
Wind  
Wind Speed 4 mph (NE)    
Max Wind Speed 7 mph    
Max Gust Speed -    
Visibility 10 miles    
Events      
Averages and records for this station are not official NWS values.
T = Trace of Precipitation, MM = Missing Value Source: NWS Daily Summary

Daily Weather History Graph

Daily Weather History Graph

Search for Another Location

Airport:

Trip Planner

Search our weather history database for the weather conditions in past years. The results will help you decide how hot, cold, wet, or windy it might be!

Date:

Astronomy

Jul. 14, 2013 Rise Set
Actual Time 5:28 AM CDT 8:58 PM CDT
Civil Twilight 4:50 AM CDT 9:36 PM CDT
Nautical Twilight 4:00 AM CDT 10:26 PM CDT
Astronomical Twilight 2:54 AM CDT 11:32 PM CDT
Moon 12:13 PM CDT (7/14) 11:42 PM CDT (7/14)
Length of Visible Light 16h 45m
Length of Day
15h 30m
Waxing Crescent, 35% of the Moon is Illuminated
Jul 14
Waxing Crescent
Jul 15
First Quarter
Jul 22
Full
Jul 29
Last Quarter
Aug 6
New

Hourly Weather History & Observations

Time (CDT) Temp. Dew Point Humidity Pressure Visibility Wind Dir Wind Speed Gust Speed Precip Events Conditions
12:14 AM 60.8 °F 59.0 °F 94% 30.09 in 7.0 mi ENE 4.6 mph - N/A   Overcast
12:33 AM 60.8 °F 59.0 °F 94% 30.09 in 7.0 mi ENE 4.6 mph - N/A   Overcast
12:54 AM 60.8 °F 59.0 °F 94% 30.10 in 7.0 mi ENE 4.6 mph - N/A   Overcast
1:14 AM 60.8 °F 57.2 °F 88% 30.10 in 10.0 mi NE 4.6 mph - N/A   Overcast
1:33 AM 60.8 °F 57.2 °F 88% 30.10 in 10.0 mi NNE 4.6 mph - N/A   Overcast
1:54 AM 60.8 °F 57.2 °F 88% 30.10 in 10.0 mi NE 3.5 mph - N/A   Overcast
2:14 AM 60.8 °F 57.2 °F 88% 30.09 in 10.0 mi NE 3.5 mph - N/A   Mostly Cloudy
2:33 AM 60.8 °F 57.2 °F 88% 30.09 in 5.0 mi NNE 3.5 mph - N/A   Scattered Clouds
2:54 AM 60.8 °F 57.2 °F 88% 30.08 in 7.0 mi NNE 4.6 mph - N/A   Scattered Clouds
3:14 AM 60.8 °F 57.2 °F 88% 30.08 in 10.0 mi NE 3.5 mph - N/A   Mostly Cloudy
3:33 AM 60.8 °F 57.2 °F 88% 30.09 in 10.0 mi NE 4.6 mph - N/A   Mostly Cloudy
3:54 AM 60.8 °F 57.2 °F 88% 30.09 in 10.0 mi ENE 5.8 mph - N/A   Mostly Cloudy
4:14 AM 60.8 °F 57.2 °F 88% 30.09 in 10.0 mi ENE 4.6 mph - N/A   Overcast
4:33 AM 60.8 °F 57.2 °F 88% 30.10 in 10.0 mi NE 4.6 mph - N/A   Overcast
4:54 AM 59.0 °F 57.2 °F 94% 30.10 in 10.0 mi NE 5.8 mph - N/A   Overcast
5:14 AM 60.8 °F 57.2 °F 88% 30.10 in 10.0 mi ENE 4.6 mph - N/A   Overcast
5:33 AM 60.8 °F 57.2 °F 88% 30.11 in 10.0 mi NE 3.5 mph - N/A   Overcast
5:54 AM 60.8 °F 57.2 °F 88% 30.11 in 10.0 mi ENE 4.6 mph - N/A   Overcast
6:14 AM 60.8 °F 57.2 °F 88% 30.11 in 10.0 mi NE 3.5 mph - N/A   Overcast
6:33 AM 60.8 °F 57.2 °F 88% 30.11 in 10.0 mi NE 4.6 mph - N/A   Overcast
6:54 AM 60.8 °F 57.2 °F 88% 30.11 in 10.0 mi East 5.8 mph - N/A   Overcast
7:14 AM 60.8 °F 57.2 °F 88% 30.11 in 10.0 mi East 3.5 mph - N/A   Mostly Cloudy
7:33 AM 60.8 °F 57.2 °F 88% 30.12 in 10.0 mi ENE 3.5 mph - N/A   Scattered Clouds
7:54 AM 60.8 °F 57.2 °F 88% 30.12 in 10.0 mi Calm Calm - N/A   Scattered Clouds
8:14 AM 60.8 °F 57.2 °F 88% 30.12 in 10.0 mi NNE 5.8 mph - N/A   Clear
8:33 AM 60.8 °F 57.2 °F 88% 30.12 in 10.0 mi Calm Calm - N/A   Clear
8:54 AM 60.8 °F 57.2 °F 88% 30.13 in 10.0 mi North 3.5 mph - N/A   Clear
9:14 AM 59.0 °F 57.2 °F 94% 30.13 in 10.0 mi NNE 3.5 mph - N/A   Clear
9:33 AM 60.8 °F 57.2 °F 88% 30.14 in 10.0 mi NNE 3.5 mph - N/A   Clear
9:54 AM 60.8 °F 57.2 °F 88% 30.14 in 10.0 mi Calm Calm - N/A   Clear
10:13 AM 60.8 °F 57.2 °F 88% 30.14 in 10.0 mi Calm Calm - N/A   Scattered Clouds
10:33 AM 60.8 °F 57.2 °F 88% 30.14 in 10.0 mi Calm Calm - N/A   Scattered Clouds
10:54 AM 62.6 °F 57.2 °F 82% 30.14 in 10.0 mi Calm Calm - N/A   Scattered Clouds
11:13 AM 62.6 °F 59.0 °F 88% 30.14 in 10.0 mi Calm Calm - N/A   Scattered Clouds
11:33 AM 62.6 °F 59.0 °F 88% 30.13 in 10.0 mi Calm Calm - N/A   Scattered Clouds
11:54 AM 64.4 °F 60.8 °F 88% 30.14 in 10.0 mi Calm Calm - N/A   Scattered Clouds
12:13 PM 64.4 °F 60.8 °F 88% 30.15 in 10.0 mi Calm Calm - N/A   Scattered Clouds
12:33 PM 64.4 °F 60.8 °F 88% 30.15 in 10.0 mi NE 4.6 mph - N/A   Clear
12:54 PM 64.4 °F 60.8 °F 88% 30.15 in 10.0 mi NE 4.6 mph - N/A   Clear
1:13 PM 64.4 °F 60.8 °F 88% 30.15 in 10.0 mi Calm Calm - N/A   Scattered Clouds
1:33 PM 64.4 °F 60.8 °F 88% 30.15 in 10.0 mi SE 3.5 mph - N/A   Scattered Clouds
1:54 PM 66.2 °F 62.6 °F 88% 30.16 in 10.0 mi Calm Calm - N/A   Overcast
2:13 PM 68.0 °F 64.4 °F 88% 30.16 in 10.0 mi Calm Calm - N/A   Overcast
2:33 PM 69.8 °F 64.4 °F 83% 30.16 in 10.0 mi NNE 3.5 mph - N/A   Overcast
2:54 PM 64.4 °F 60.8 °F 88% 30.16 in 10.0 mi ENE 4.6 mph - N/A   Overcast
3:13 PM 64.4 °F 60.8 °F 88% 30.16 in 10.0 mi Calm Calm - N/A   Mostly Cloudy
3:33 PM 64.4 °F 60.8 °F 88% 30.16 in 10.0 mi North 4.6 mph - N/A   Overcast
3:54 PM 64.4 °F 60.8 °F 88% 30.16 in 10.0 mi North 4.6 mph - N/A   Overcast
4:13 PM 64.4 °F 60.8 °F 88% 30.17 in 10.0 mi North 5.8 mph - N/A   Mostly Cloudy
4:33 PM 66.2 °F 62.6 °F 88% 30.17 in 10.0 mi NNE 3.5 mph - N/A   Mostly Cloudy
4:54 PM 66.2 °F 62.6 °F 88% 30.17 in 10.0 mi NNE 3.5 mph - N/A   Scattered Clouds
5:13 PM 66.2 °F 62.6 °F 88% 30.16 in 10.0 mi Calm Calm - N/A   Scattered Clouds
5:33 PM 68.0 °F 62.6 °F 83% 30.16 in 10.0 mi Calm Calm - N/A   Scattered Clouds
5:54 PM 69.8 °F 64.4 °F 83% 30.16 in 10.0 mi Calm Calm - N/A   Scattered Clouds
6:13 PM 68.0 °F 62.6 °F 83% 30.16 in 10.0 mi East 5.8 mph - N/A   Scattered Clouds
6:33 PM 68.0 °F 64.4 °F 88% 30.17 in 10.0 mi East 5.8 mph - N/A   Mostly Cloudy
6:53 PM 68.0 °F 64.4 °F 88% 30.17 in 10.0 mi ESE 5.8 mph - N/A   Scattered Clouds
7:13 PM 69.8 °F 64.4 °F 83% 30.17 in 10.0 mi ESE 5.8 mph - N/A   Scattered Clouds
7:34 PM 69.8 °F 64.4 °F 83% 30.17 in 10.0 mi East 4.6 mph - N/A   Mostly Cloudy
7:53 PM 69.8 °F 64.4 °F 83% 30.17 in 10.0 mi East 3.5 mph - N/A   Mostly Cloudy
8:14 PM 69.8 °F 64.4 °F 83% 30.18 in 10.0 mi Calm Calm - N/A   Overcast
8:33 PM 69.8 °F 64.4 °F 83% 30.18 in 10.0 mi ESE 4.6 mph - N/A   Mostly Cloudy
8:53 PM 69.8 °F 64.4 °F 83% 30.18 in 10.0 mi ESE 4.6 mph - N/A   Mostly Cloudy
9:14 PM 68.0 °F 64.4 °F 88% 30.18 in 10.0 mi ESE 4.6 mph - N/A   Mostly Cloudy
9:33 PM 66.2 °F 62.6 °F 88% 30.19 in 10.0 mi ESE 3.5 mph - N/A   Mostly Cloudy
9:54 PM 64.4 °F 62.6 °F 94% 30.20 in 10.0 mi North 3.5 mph - N/A   Mostly Cloudy
10:13 PM 64.4 °F 62.6 °F 94% 30.20 in 7.0 mi North 4.6 mph - N/A   Overcast
10:33 PM 64.4 °F 62.6 °F 94% 30.21 in 10.0 mi North 4.6 mph - N/A   Mostly Cloudy
10:54 PM 64.4 °F 62.6 °F 94% 30.21 in 10.0 mi North 6.9 mph - N/A   Mostly Cloudy
11:13 PM 64.4 °F 62.6 °F 94% 30.21 in 10.0 mi North 3.5 mph - N/A   Mostly Cloudy
11:33 PM 64.4 °F 62.6 °F 94% 30.21 in 10.0 mi Calm Calm - N/A   Mostly Cloudy
11:54 PM 64.4 °F 62.6 °F 94% 30.22 in 10.0 mi Calm Calm - N/A   Overcast